Tracking 21094 objects as of 14-Aug-2020
HD Live streaming from Space Station
objects crossing your sky now
Track the most recent launched group of Starlink satellites

SL-12 R/B(2)

Track SL-12 R/B(2) now!


NORAD ID: 17125
Int'l Code: 1986-090D
Perigee: 35,740.2 km
Apogee: 35,828.4 km
Inclination: 13.5 °
Period: 1,435.6 minutes
Semi major axis: 42155 km
RCS: 1.5849 m2 (large)
Launch date: November 18, 1986
Source: Commonwealth of Independent States (former USSR) (CIS)
Launch site: TYURATAM MISSILE AND SPACE COMPLEX (TTMTR)

Note: This is a ROCKET BODY
aabbcc
Your satellite tracking list
Your tracking list is empty




NASA's NSSDC Master Catalog

Two Line Element Set (TLE):
1 17125U 86090D   20225.70502972 -.00000360 +00000-0 +00000-0 0  9992
2 17125 013.5007 339.4667 0010467 110.2350 249.9334 01.00305449123468
Source of the keplerian elements: AFSPC